Change the Weather History Date:

Wednesday, July 18, 2012

  Actual Average Record
Temperature  
Mean Temperature 80 °F 74 °F  
Max Temperature 97 °F 88 °F 104 °F (1955)
Min Temperature 62 °F 60 °F 43 °F (1972)
Degree Days  
Heating Degree Days 0 0  
Month to date heating degree days 0 12  
Since 1 June heating degree days 35 108  
Since 1 July heating degree days 0 12  
Cooling Degree Days 15 9  
Month to date cooling degree days 234 135  
Year to date cooling degree days 421 237  
Since 1 June cooling degree days 387 220  
Growing Degree Days 30 (Base 50)    
Moisture  
Dew Point 47 °F    
Average Humidity 46    
Maximum Humidity 78    
Minimum Humidity 13    
Precipitation  
Precipitation 0.00 in 0.04 in 0.96 in (1969)
Month to date precipitation 0.39 0.83  
Year to date precipitation 4.78 8.81  
Snow  
Snow 0.00 in 0.00 in T in (2008)
Month to date snowfall 0.0 0.0  
Since 1 June snowfall T 0.0  
Since 1 July snowfall 0.0 0.0  
Snow Depth 0.00 in    
Sea Level Pressure  
Sea Level Pressure 29.83 in    
Wind  
Wind Speed 7 mph (SW)    
Max Wind Speed 15 mph    
Max Gust Speed 18 mph    
Visibility 10 miles    
Events      
T = Trace of Precipitation, MM = Missing Value Source: NWS Daily Summary

Daily Weather History Graph

Daily Weather History Graph

Search for Another Location

Airport or City:

Trip Planner

Search our weather history database for the weather conditions in past years. The results will help you decide how hot, cold, wet, or windy it might be!

Date:

Astronomy

Jul. 18, 2012 Rise Set
Actual Time 5:42 AM MDT 8:57 PM MDT
Civil Twilight 5:06 AM MDT 9:34 PM MDT
Nautical Twilight 4:18 AM MDT 10:21 PM MDT
Astronomical Twilight 3:19 AM MDT 11:19 PM MDT
Moon 5:21 AM MDT (7/18) 8:25 PM MDT (7/18)
Length of Visible Light 16h 28m
Length of Day
15h 15m
Waning Crescent, 0% of the Moon is Illuminated
Jul 18
Waning Crescent
Jul 18
New
Jul 26
First Quarter
Aug 1
Full
Aug 9
Last Quarter

Hourly Weather History & Observations

Time (MDT) Temp. Dew Point Humidity Pressure Visibility Wind Dir Wind Speed Gust Speed Precip Events Conditions
12:53 AM 71.6 °F 57.2 °F 60% 29.92 in 10.0 mi SSW 6.9 mph - N/A   Partly Cloudy
1:53 AM 70.0 °F 57.0 °F 63% 29.83 in 10.0 mi NW 5.8 mph - N/A   Clear
2:53 AM 66.9 °F 55.9 °F 68% 29.83 in 10.0 mi SSW 9.2 mph - N/A   Clear
3:53 AM 66.0 °F 55.9 °F 70% 29.83 in 10.0 mi SW 13.8 mph - N/A   Clear
4:53 AM 63.0 °F 55.0 °F 75% 29.83 in 10.0 mi SSW 12.7 mph - N/A   Partly Cloudy
5:53 AM 64.9 °F 54.0 °F 68% 29.85 in 10.0 mi WSW 4.6 mph - N/A   Partly Cloudy
6:53 AM 64.0 °F 53.1 °F 67% 29.87 in 10.0 mi SW 11.5 mph - N/A   Partly Cloudy
7:53 AM 64.9 °F 54.0 °F 68% 29.88 in 10.0 mi SW 11.5 mph - N/A   Clear
8:53 AM 71.1 °F 55.9 °F 59% 29.88 in 10.0 mi SSW 6.9 mph - N/A   Clear
9:53 AM 78.1 °F 57.0 °F 48% 29.87 in 10.0 mi SSW 9.2 mph - N/A   Clear
10:53 AM 84.9 °F 51.1 °F 31% 29.86 in 10.0 mi SW 12.7 mph - N/A   Clear
11:53 AM 88.0 °F 48.0 °F 25% 29.85 in 10.0 mi WSW 8.1 mph - N/A   Partly Cloudy
12:53 PM 91.9 °F 41.0 °F 17% 29.84 in 10.0 mi SSW 6.9 mph - N/A   Partly Cloudy
1:53 PM 93.9 °F 39.9 °F 15% 29.82 in 10.0 mi SSW 11.5 mph - N/A   Partly Cloudy
2:53 PM 93.9 °F 39.0 °F 15% 29.82 in 10.0 mi South 3.5 mph 16.1 mph N/A   Partly Cloudy
3:53 PM 95.0 °F 39.9 °F 15% 29.80 in 10.0 mi South 8.1 mph - N/A   Partly Cloudy
4:53 PM 97.0 °F 39.9 °F 14% 29.78 in 10.0 mi WSW 6.9 mph - N/A   Partly Cloudy
5:53 PM 96.1 °F 39.0 °F 14% 29.78 in 10.0 mi WSW 6.9 mph - N/A   Partly Cloudy
6:53 PM 96.1 °F 37.9 °F 13% 29.77 in 10.0 mi Calm Calm - N/A   Partly Cloudy
7:53 PM 95.0 °F 39.0 °F 14% 29.77 in 10.0 mi Calm Calm - N/A   Partly Cloudy
8:53 PM 91.9 °F 37.9 °F 15% 29.78 in 10.0 mi Calm Calm - N/A   Partly Cloudy
9:53 PM 86.0 °F 44.1 °F 23% 29.81 in 10.0 mi SSW 4.6 mph - N/A   Partly Cloudy
10:53 PM 89.1 °F 41.0 °F 19% 29.81 in 10.0 mi SW 4.6 mph - N/A   Scattered Clouds
11:53 PM 82.0 °F 45.0 °F 27% 29.83 in 10.0 mi West 3.5 mph - N/A   Partly Cloudy